Location: Street
(51.1247°N, 2.7429°W)
Time: 19:00:13
(UTC+00:00)

N. Korean satellite - Pass Details

Date: 03 November 2020
Orbit: 453 x 503 km, 97.2° (Epoch: 04 December)

Event Time Altitude Azimuth Distance (km) Brightness Sun altitude
Rises 17:40:12 0° 200° (SSW) 2,515 10.7 -9.7°
Reaches altitude 10° 17:42:40 10° 218° (SW) 1,633 10.0 -10.1°
Maximum altitude 17:45:18 20° 267° (W) 1,150 9.6 -10.5°
Drops below altitude 10° 17:47:55 10° 316° (NW) 1,625 9.7 -10.9°
Sets 17:50:22 0° 334° (NNW) 2,498 10.4 -11.3°
